Tracking 35331 objects as of 16-Sep-2026
HD Live streaming from Space Station
objects crossing your sky now

STARLINK-37891

Track STARLINK-37891 now!
10-day predictions
STARLINK-37891 is classified as:


NORAD ID: 69948
Int'l Code: 2026-157F
Launch date: July 9, 2026
Source: United States (US)
Launch site: AIR FORCE EASTERN TEST RANGE (AFETR)
Your satellite tracking list
Your tracking list is empty




NASA's NSSDC Master Catalog

Two Line Element Set (TLE):
1 69948U 26157F   26258.27299740  .00030329  00000-0  90481-3 0  9992
2 69948  53.1616 357.9282 0000625  44.1060 315.9992 15.34411146 10575
Source of the keplerian elements: AFSPC